Location: ??
(35.4032°N, 139.3073°E)
Time: 12:48:24
(UTC+00:00)

Cosmos 1151 Rocket - Pass Details

Date: 13 April 2024
Orbit: 588 x 611 km, 82.5° (Epoch: 22 May)

Event Time Altitude Azimuth Distance (km) Brightness Sun altitude
Exits shadow 18:37:16 28° 296° (WNW) 1,131 4.1 -19.0°
Drops below altitude 10° 18:40:31 10° 343° (NNW) 1,950 5.7 -18.4°
Sets 18:42:59 0° 355° (N) 2,861 6.8 -17.9°
